Terug naar catalogus

STARLINK-5999

ActiefCommunicatieVLEO
NORAD 56909·PAYLOAD·🇺🇸 United States

Gelanceerd Jun 12, 2023 vanaf Cape Canaveral Space Force Station

Loading…

Volgende Passages (komende 24 uur)

TLE

VersSource: CelesTrak SupGP

Epoch: Sep 15, 2026, 01:38 UTC

1 56909C 23083AK  26258.06854167  .00012672  00000+0  45889-3 0  2587
2 56909  43.0016  81.5887 0001947 270.1300 186.4902 15.27576915    15

Volg STARLINK-5999 in realtime met AllMySat

Download on the App Store